• In Belgien
  • Länderverzeichnis
  • Für 7 Tage
  • Wassertemperatur
  • Satellitenkarten
  • Wetterkarte
  • Widgets
  • user-avatar
    Anmelden

    Stündliche Wetter Algier

    Heute, 16 Juli, Montag

    Zeit Temperatur Niederschläge Wind Luftdruck Luftfeuchtigkeit
    00:00 +30°C° 0 mm 1 m/S 748 mmHg 62%
    01:00 +30°C° 0 mm 2 m/S 748 mmHg 62%
    02:00 +30°C° 0 mm 3 m/S 748 mmHg 62%
    03:00 +30°C° 0 mm 3 m/S 748 mmHg 63%
    04:00 +30°C° 0 mm 4 m/S 749 mmHg 58%
    05:00 +30°C° 0 mm 5 m/S 749 mmHg 54%
    06:00 +30°C° 0 mm 5 m/S 749 mmHg 49%
    07:00 +32°C° 0 mm 6 m/S 750 mmHg 42%
    08:00 +33°C° 0 mm 7 m/S 750 mmHg 34%
    09:00 +34°C° 0 mm 8 m/S 750 mmHg 26%
    10:00 +35°C° 0 mm 7 m/S 750 mmHg 25%
    11:00 +35°C° 0 mm 7 m/S 750 mmHg 24%
    12:00 +36°C° 0 mm 7 m/S 750 mmHg 22%
    13:00 +36°C° 0 mm 7 m/S 750 mmHg 25%
    14:00 +35°C° 0 mm 6 m/S 750 mmHg 28%
    15:00 +35°C° 0 mm 6 m/S 750 mmHg 30%
    16:00 +34°C° 0 mm 5 m/S 750 mmHg 33%
    17:00 +33°C° 0 mm 4 m/S 750 mmHg 36%
    18:00 +31°C° 0 mm 3 m/S 750 mmHg 39%
    19:00 +30°C° 0 mm 2 m/S 750 mmHg 41%
    20:00 +29°C° 0 mm 2 m/S 750 mmHg 43%
    21:00 +28°C° 0 mm 1 m/S 750 mmHg 45%
    22:00 +28°C° 0 mm 1 m/S 750 mmHg 45%
    23:00 +27°C° 0 mm 1 m/S 750 mmHg 45%

    Morgen, 17 Juli, Dienstag

    Zeit Temperatur Niederschläge Wind Luftdruck Luftfeuchtigkeit
    00:00 +27°C° 0 mm 1 m/S 750 mmHg 45%
    01:00 +27°C° 0 mm 1 m/S 750 mmHg 44%
    02:00 +26°C° 0 mm 1 m/S 750 mmHg 42%
    03:00 +26°C° 0 mm 2 m/S 749 mmHg 41%
    04:00 +27°C° 0 mm 2 m/S 749 mmHg 39%
    05:00 +27°C° 0 mm 2 m/S 749 mmHg 36%
    06:00 +28°C° 0 mm 3 m/S 749 mmHg 33%
    07:00 +30°C° 0 mm 3 m/S 749 mmHg 28%
    08:00 +33°C° 0 mm 3 m/S 750 mmHg 23%
    09:00 +35°C° 0 mm 4 m/S 750 mmHg 18%
    10:00 +36°C° 0 mm 4 m/S 749 mmHg 17%
    11:00 +39°C° 0 mm 5 m/S 749 mmHg 16%
    12:00 +40°C° 0 mm 6 m/S 749 mmHg 15%
    13:00 +40°C° 0 mm 6 m/S 749 mmHg 17%
    14:00 +40°C° 0 mm 6 m/S 748 mmHg 18%
    15:00 +41°C° 0 mm 6 m/S 748 mmHg 20%
    16:00 +39°C° 0 mm 6 m/S 747 mmHg 24%
    17:00 +38°C° 0 mm 6 m/S 747 mmHg 28%
    18:00 +36°C° 0 mm 6 m/S 747 mmHg 32%
    19:00 +35°C° 0 mm 6 m/S 747 mmHg 35%
    20:00 +34°C° 0 mm 6 m/S 747 mmHg 38%
    21:00 +33°C° 0 mm 5 m/S 747 mmHg 41%
    22:00 +33°C° 0 mm 5 m/S 747 mmHg 40%
    23:00 +32°C° 0 mm 5 m/S 747 mmHg 39%

    übermorgen, 18 Juli, Mittwoch

    Zeit Temperatur Niederschläge Wind Luftdruck Luftfeuchtigkeit
    00:00 +32°C° 0 mm 5 m/S 746 mmHg 38%
    01:00 +32°C° 0 mm 5 m/S 746 mmHg 37%
    02:00 +32°C° 0 mm 5 m/S 746 mmHg 35%
    03:00 +32°C° 0 mm 5 m/S 746 mmHg 33%
    04:00 +33°C° 0 mm 5 m/S 746 mmHg 33%
    05:00 +34°C° 0 mm 6 m/S 746 mmHg 32%
    06:00 +34°C° 0 mm 6 m/S 746 mmHg 31%
    07:00 +36°C° 0 mm 6 m/S 746 mmHg 28%
    08:00 +40°C° 0 mm 6 m/S 746 mmHg 24%
    09:00 +42°C° 0 mm 6 m/S 746 mmHg 21%
    10:00 +44°C° 0 mm 6 m/S 746 mmHg 20%
    11:00 +45°C° 0 mm 5 m/S 746 mmHg 19%
    12:00 +46°C° 0 mm 5 m/S 746 mmHg 18%
    13:00 +45°C° 0 mm 5 m/S 746 mmHg 22%
    14:00 +43°C° 0 mm 4 m/S 746 mmHg 26%
    15:00 +42°C° 0 mm 3 m/S 746 mmHg 30%
    16:00 +39°C° 0 mm 3 m/S 746 mmHg 35%
    17:00 +38°C° 0 mm 2 m/S 746 mmHg 40%
    18:00 +36°C° 0 mm 2 m/S 746 mmHg 45%
    19:00 +35°C° 0 mm 2 m/S 747 mmHg 49%
    20:00 +32°C° 0 mm 2 m/S 747 mmHg 54%
    21:00 +31°C° 0 mm 1 m/S 748 mmHg 58%
    22:00 +31°C° 0 mm 1 m/S 747 mmHg 57%
    23:00 +31°C° 0 mm 2 m/S 747 mmHg 55%

    19 Juli, Donnerstag

    Zeit Temperatur Niederschläge Wind Luftdruck Luftfeuchtigkeit
    00:00 +31°C° 0 mm 2 m/S 747 mmHg 54%
    01:00 +31°C° 0 mm 2 m/S 747 mmHg 56%
    02:00 +30°C° 0 mm 2 m/S 747 mmHg 57%
    03:00 +29°C° 0 mm 3 m/S 747 mmHg 59%
    04:00 +30°C° 0 mm 3 m/S 747 mmHg 59%
    05:00 +30°C° 0 mm 2 m/S 747 mmHg 59%
    06:00 +30°C° 0 mm 2 m/S 747 mmHg 59%
    07:00 +31°C° 0 mm 3 m/S 747 mmHg 55%
    08:00 +33°C° 0 mm 3 m/S 747 mmHg 51%
    09:00 +34°C° 0 mm 4 m/S 748 mmHg 48%
    10:00 +36°C° 0 mm 3 m/S 747 mmHg 43%
    11:00 +38°C° 0 mm 3 m/S 747 mmHg 38%
    12:00 +39°C° 0 mm 3 m/S 747 mmHg 33%
    13:00 +39°C° 0 mm 3 m/S 747 mmHg 34%
    14:00 +39°C° 0 mm 3 m/S 747 mmHg 34%
    15:00 +39°C° 0 mm 3 m/S 746 mmHg 34%
    16:00 +38°C° 0 mm 3 m/S 746 mmHg 36%
    17:00 +36°C° 0 mm 2 m/S 746 mmHg 37%
    18:00 +35°C° 0 mm 2 m/S 746 mmHg 38%
    19:00 +34°C° 0 mm 2 m/S 747 mmHg 40%
    20:00 +32°C° 0 mm 1 m/S 747 mmHg 41%
    21:00 +32°C° 0 mm 1 m/S 747 mmHg 42%
    22:00 +32°C° 0 mm 1 m/S 747 mmHg 41%
    23:00 +32°C° 0 mm 1 m/S 747 mmHg 39%

    20 Juli, Freitag

    Zeit Temperatur Niederschläge Wind Luftdruck Luftfeuchtigkeit
    00:00 +32°C° 0 mm 1 m/S 747 mmHg 37%
    01:00 +32°C° 0 mm 2 m/S 746 mmHg 35%
    02:00 +32°C° 0 mm 2 m/S 746 mmHg 34%
    03:00 +32°C° 0 mm 2 m/S 746 mmHg 32%
    04:00 +32°C° 0 mm 2 m/S 746 mmHg 33%
    05:00 +32°C° 0 mm 2 m/S 747 mmHg 35%
    06:00 +32°C° 0 mm 2 m/S 747 mmHg 36%
    07:00 +34°C° 0 mm 2 m/S 747 mmHg 32%
    08:00 +36°C° 0 mm 3 m/S 747 mmHg 29%
    09:00 +37°C° 0 mm 4 m/S 748 mmHg 25%
    10:00 +38°C° 0 mm 4 m/S 748 mmHg 24%
    11:00 +39°C° 0 mm 5 m/S 748 mmHg 23%
    12:00 +40°C° 0 mm 6 m/S 748 mmHg 23%
    13:00 +39°C° 0 mm 6 m/S 748 mmHg 25%
    14:00 +37°C° 0 mm 5 m/S 747 mmHg 27%
    15:00 +37°C° 0 mm 5 m/S 747 mmHg 29%
    16:00 +36°C° 0 mm 4 m/S 748 mmHg 32%
    17:00 +34°C° 0 mm 3 m/S 748 mmHg 36%
    18:00 +33°C° 0 mm 3 m/S 748 mmHg 39%
    19:00 +31°C° 0 mm 2 m/S 748 mmHg 43%
    20:00 +30°C° 0 mm 1 m/S 749 mmHg 47%
    21:00 +29°C° 0 mm 1 m/S 749 mmHg 51%
    22:00 +29°C° 0 mm 1 m/S 749 mmHg 51%
    23:00 +28°C° 0 mm 1 m/S 749 mmHg 50%

    21 Juli, Samstag

    Zeit Temperatur Niederschläge Wind Luftdruck Luftfeuchtigkeit
    00:00 +28°C° 0 mm 1 m/S 749 mmHg 50%
    01:00 +28°C° 0 mm 2 m/S 749 mmHg 50%
    02:00 +28°C° 0 mm 2 m/S 749 mmHg 51%
    03:00 +28°C° 0 mm 3 m/S 749 mmHg 51%
    04:00 +28°C° 0 mm 3 m/S 749 mmHg 51%
    05:00 +28°C° 0 mm 3 m/S 749 mmHg 50%
    06:00 +28°C° 0 mm 3 m/S 749 mmHg 49%
    07:00 +29°C° 0 mm 3 m/S 750 mmHg 44%
    08:00 +31°C° 0 mm 3 m/S 750 mmHg 40%
    09:00 +33°C° 0 mm 3 m/S 750 mmHg 35%
    10:00 +34°C° 0 mm 4 m/S 750 mmHg 32%
    11:00 +36°C° 0 mm 4 m/S 750 mmHg 29%
    12:00 +37°C° 0 mm 4 m/S 750 mmHg 26%
    13:00 +37°C° 0 mm 5 m/S 749 mmHg 28%
    14:00 +39°C° 0 mm 5 m/S 749 mmHg 29%
    15:00 +39°C° 0 mm 5 m/S 749 mmHg 31%
    16:00 +37°C° 0 mm 5 m/S 749 mmHg 35%
    17:00 +35°C° 0 mm 5 m/S 749 mmHg 40%
    18:00 +34°C° 0 mm 5 m/S 749 mmHg 44%
    19:00 +33°C° 0 mm 5 m/S 749 mmHg 49%
    20:00 +32°C° 0 mm 4 m/S 749 mmHg 55%
    21:00 +29°C° 0 mm 4 m/S 750 mmHg 60%
    22:00 +29°C° 0 mm 3 m/S 749 mmHg 61%
    23:00 +29°C° 0 mm 3 m/S 749 mmHg 61%
    Mehr zeigen